sat.trackr.live / text

‹ back to catalog

KAZEOSAT 1

NORAD 39731 · 2014-024A

PAYLOAD ACTIVE UNKNOWN

§ Identity

Operator
Country
KAZ
Launch date
2014-04-30
Launch site
FRGUI
Launch vehicle
Mass (kg)
RCS (m²)
4.22

Purposes: earth_obs

External: N2YO · Heavens-Above · Gunter

§ Orbital elements

Epoch: 2026-05-25T04:39:28.041984Z

Period
99.86 min
Inclination
98.3205°
Eccentricity
0.0001550
Mean motion
14.42068797 rev/d
Perigee alt
750.6 km
Apogee alt
752.8 km
Semi-major
7,129.8 km
B*
9.2230e-6
RAAN
218.2123°
Arg perigee
86.9017°
Mean anomaly
273.2350°
Rev number
63,524

§ Raw data

KAZEOSAT 11 39731U 14024A   26145.19407456 -.00000012  00000+0  92230-5 0  99922 39731  98.3205 218.2123 0001550  86.9017 273.2350 14.42068797635243

JSON: /api/v1/satellites/39731 · /tle

For live sub-satellite position, see the globe view (requires WebGL).

§ Visibility from observer

Set your observer location to see the next 7 days of passes ≥ 10°. The values pass through the URL so the page stays shareable.

No JS? Fill the form by hand. The geolocation button needs JavaScript.

§ Radio — SatNOGS DB

ModeDescriptionDownlinkUplink
FM Mode U - Possibly Downlink 400.800 MHz

1 transmitter · refreshed weekly from db.satnogs.org